Flag for Germany Weather past 2 weeks in Weimar, Thuringia, Germany

Now
68 °F

Partly sunny.


Feels Like: 68 °F
Forecast: 52 / 66 °F
Wind: 12 mph from Northwest

Location: Erfurt-Bindersleben

Current Time: Sep 20, 2014 at 7:10:44 PM

Latest Report: Sep 20, 2014 at 3:20 PM


Visibility: N/A

Pressure: 29.95 "Hg

Humidity: 78%

Dew point: 61 °F

Location of WeimarLocation

Historic Weather in Weimar — Graph

°F

Weimar temperature yesterday

Maximum temperature yesterday: 73 °F (at 1:50 PM)
Minimum temperature yesterday: 59 °F (at 5:50 AM)
Average temperature yesterday: 64 °F

Past Weeks' High & Low Weather Summary

 TemperatureHumidityPressure
High75 °F (Sep 5, 4:20 PM)100% (Sep 6, 2:50 AM)30.18 "Hg (Sep 6, 2:50 AM)
Low52 °F (Sep 10, 11:50 PM)50% (Sep 16, 4:20 PM)29.89 "Hg (Sep 6, 3:50 PM)
Average61 °F87%30.02 "Hg
* Reported Sep 5 3:20 PM — Sep 20 3:20 PM, Weimar, Weather by CustomWeather, © 2014

Note: Actual official high and low records may vary slightly from our data, if they occured in-between our weather recording intervals... More about our weather records

Advertising

Weimar weather history for previous 24 hours

 ConditionsComfort  
Time TempWeatherWind HumidityBarometerVisibility
3:20 PM
Sep 20
68 °FPartly sunny.12 mph78%29.95 "HgN/A
2:50 PM68 °FPartly sunny.12 mph83%29.95 "HgN/A
2:20 PM68 °FBroken clouds.9 mph83%29.95 "HgN/A
1:50 PM68 °FThundershowers. Partly sunny.9 mph78%29.95 "HgN/A
1:20 PM70 °FThundershowers. Partly sunny.9 mph78%29.95 "HgN/A
12:20 PM70 °FBroken clouds.9 mph78%29.95 "HgN/A
11:50 AM70 °FPassing clouds.7 mph83%29.95 "HgN/A
11:20 AM68 °FPassing clouds.7 mph83%29.95 "HgN/A
10:50 AM68 °FPassing clouds.8 mph83%29.95 "HgN/A
10:20 AM66 °FPassing clouds.6 mph88%29.95 "HgN/A
9:50 AM64 °FPassing clouds.5 mph88%29.95 "HgN/A
9:20 AM64 °FSunny.5 mph88%29.95 "Hg10 mi
8:50 AM63 °FSunny.7 mph94%29.95 "Hg10 mi
8:20 AM61 °FSunny.6 mph94%29.95 "Hg10 mi
7:50 AM59 °FClear.7 mph94%29.95 "Hg10 mi
7:20 AM59 °FClear.8 mph94%29.95 "Hg10 mi
6:50 AM59 °FClear.8 mph94%29.95 "Hg10 mi
6:20 AM57 °FClear.8 mph100%29.95 "Hg10 mi
5:50 AM59 °FClear.6 mph94%29.95 "Hg10 mi
5:20 AM59 °FClear.8 mph94%29.95 "Hg10 mi
4:50 AM59 °FClear.7 mph100%29.95 "Hg10 mi
4:20 AM59 °FClear.8 mph94%29.95 "Hg10 mi
3:50 AM59 °FClear.7 mph100%29.95 "Hg10 mi
3:20 AM57 °FClear.8 mph100%29.95 "Hg10 mi
2:50 AM59 °FClear.6 mph94%29.95 "Hg10 mi
1:50 AM57 °FClear.8 mph100%29.95 "Hg10 mi
1:20 AM59 °FClear.8 mph94%29.95 "Hg10 mi
12:50 AM59 °FClear.8 mph100%29.95 "Hg10 mi
12:20 AM59 °FClear.7 mph100%29.95 "Hg10 mi
11:50 PM
Sep 19
59 °FPassing clouds.7 mph100%29.95 "HgN/A
11:20 PM61 °FPassing clouds.7 mph94%29.95 "HgN/A
10:50 PM61 °FPassing clouds.6 mph100%29.95 "HgN/A
10:20 PM63 °FPassing clouds.7 mph94%29.95 "HgN/A
9:50 PM61 °FPassing clouds.8 mph100%29.95 "HgN/A
9:20 PM61 °FPartly cloudy.6 mph100%29.95 "HgN/A
8:50 PM63 °FPartly cloudy.6 mph100%29.95 "HgN/A
8:20 PM63 °FSunny.5 mph94%29.95 "Hg10 mi
7:50 PM63 °FSunny.7 mph94%29.95 "Hg10 mi
7:20 PM63 °FSunny.3 mph94%29.92 "Hg10 mi
Weather by CustomWeather, © 2014

See weather overviewHow to use our weather pages